Location: Zagreb
(45.8000°N, 16.0000°E)
Time: 20:04:29
(UTC+02:00)

SR - Pass Details

Date: 13 August 2020
Orbit: 583 x 873 km, 66.7° (Epoch: 28 September)

Event Time Altitude Azimuth Distance (km) Brightness Sun altitude
Rises 23:17:05 0° 254° (WSW) 2,915 ? -25.5°
Reaches altitude 10° 23:19:58 10° 273° (W) 1,971 ? -25.7°
Maximum altitude 23:23:07 19° 319° (NW) 1,447 ? -26.0°
Drops below altitude 10° 23:26:12 10° 5° (N) 1,921 ? -26.2°
Sets 23:28:59 0° 24° (NNE) 2,816 ? -26.4°
